Погода в Кубее

Украина / Одесская область     45°47′37″N   28°44′27″E
темп.,
°C
ветер,
м/с
пор.,
м/с
влажн.,
%
обл.,
%
осадки,
мм/ч
давл.,
гПа
погр.,
м
5 августа, чт
чт500:00+21в34871 3.1 1016113
03:00+21ююв358823 3.1 101497
06:00+21юв34936 0.0 101471
09:00+26ююв567329 0.0 1013579
12:00+31ююв564755 0.0 10111430
15:00+33ююв77365 0.0 10091817
18:00+31ююв88443 0.0 1007852
21:00+26юв8136532 0.0 1006561
6 августа, пт
пт600:00+24ю41186100 0.0 1008637
03:00+24ююв61362100 0.1 1004263
06:00+22юв3785100 0.0 1004170
09:00+26ююв61075100 0.0 1004866
12:00+30ююз7948100 0.0 10041507
15:00+32зюз7841100 0.0 10031808
18:00+30юз464096 0.0 1002817
21:00+25с44576 0.0 100462
7 августа, сб
сб700:00+22ссз8157281 0.2 1005429
03:00+20ссз6126994 0.3 1007322
06:00+19ссз81281100 0.3 1008353
09:00+19ссз71173100 0.4 1010456
12:00+23с81054100 0.0 1011880
15:00+27ссз784153 0.0 10111398
18:00+26с774025 0.0 10121355
21:00+21с47600 0.0 1013137
8 августа, вс
вс800:00+19ссз47670 0.0 1014117
03:00+18с46650 0.0 101592
06:00+16с46670 0.0 101594
09:00+22ссв34500 0.0 1016435
12:00+27с33310 0.0 10161029
15:00+30ссз33280 0.0 10151307
18:00+30с23290 0.0 10151311
21:00+25св223913 0.0 101511
9 августа, пн
пн900:00+22в33452 0.0 101634
03:00+21в11470 0.0 101611
06:00+20всв11480 0.0 101611
09:00+25в113812 0.0 1016269
12:00+30всв11305 0.0 10161079
15:00+33ссв33265 0.0 10151786
18:00+33ссв332712 0.0 10151748
21:00+27всв463644 0.0 101678